Location: *
(32.8667°N, 13.1833°E)
Time: 06:51:13
(UTC+00:00)

USA 186 - Pass Details

Date: 18 July 2019
Orbit: 264 x 453 km, 96.9° (Epoch: 23 August)

Event Time Altitude Azimuth Distance (km) Brightness Sun altitude
Exits shadow 18:44:56 - 166° (SSE) 2,228 5.0 -6.3°
Reaches altitude 10° 18:46:54 10° 165° (SSE) 1,364 3.9 -6.7°
Maximum altitude 18:49:48 79° 79° (E) 362 1.3 -7.2°
Drops below altitude 10° 18:52:30 10° 352° (N) 1,273 4.8 -7.7°
Sets 18:54:19 0° 351° (N) 2,077 5.9 -8.0°
